This is the latest recevied weather packets stored in our database for station/object YF9UAG-17. If no packets are shown the sender has not sent any weather packets the latest 10 day(s).
| Time | Temp. | Humidity | Pressure | Rain* | Wind** | Luminosity | Snow |
|---|---|---|---|---|---|---|---|
| 1787849501 | 28.33° C | 42% | 1034.5 hPa | - | - | - | - |
| 1787848885 | 28.33° C | 42% | 1034.6 hPa | - | - | - | - |
| 1787848282 | 28.33° C | 43% | 1034.7 hPa | - | - | - | - |
| 1787847680 | 28.89° C | 42% | 1034.8 hPa | - | - | - | - |
| 1787847077 | 28.89° C | 42% | 1034.7 hPa | - | - | - | - |
| 1787846475 | 28.89° C | 43% | 1034.9 hPa | - | - | - | - |
| 1787845872 | 28.89° C | 43% | 1035 hPa | - | - | - | - |
| 1787845270 | 28.89° C | 43% | 1035 hPa | - | - | - | - |
| 1787844667 | 28.89° C | 44% | 1035.3 hPa | - | - | - | - |
| 1787844065 | 29.44° C | 45% | 1035.4 hPa | - | - | - | - |
| 1787843463 | 29.44° C | 44% | 1035.5 hPa | - | - | - | - |
| 1787842860 | 29.44° C | 44% | 1035.5 hPa | - | - | - | - |
| 1787842257 | 29.44° C | 44% | 1035.3 hPa | - | - | - | - |
| 1787841655 | 30° C | 44% | 1035.3 hPa | - | - | - | - |
| 1787841053 | 30.56° C | 43% | 1035.4 hPa | - | - | - | - |
| 1787840450 | 31.11° C | 42% | 1035.3 hPa | - | - | - | - |
| 1787839848 | 31.11° C | 42% | 1035.3 hPa | - | - | - | - |
| 1787839245 | 30.56° C | 42% | 1035.1 hPa | - | - | - | - |
| 1787838643 | 29.44° C | 44% | 1035.2 hPa | - | - | - | - |
| 1787838040 | 29.44° C | 43% | 1035.2 hPa | - | - | - | - |
| 1787837438 | 29.44° C | 43% | 1035.2 hPa | - | - | - | - |
| 1787836835 | 29.44° C | 42% | 1035 hPa | - | - | - | - |
| 1787836233 | 29.44° C | 41% | 1034.8 hPa | - | - | - | - |
| 1787835631 | 29.44° C | 40% | 1034.8 hPa | - | - | - | - |
| 1787835028 | 29.44° C | 40% | 1034.6 hPa | - | - | - | - |
* Rain since midnight (hover to see other rain measurements)
** Current wind speed in m/s (hover to see current wind gust speed)